User: anonymous   Login
Location: Unspecified
(0.0000°N, 0.0000°E)
Time: 13:07:46
(UTC+00:00)
Language:

USA-164 - Orbit

View from above orbital plane
View from above orbital plane
View from above satellite
View from above satellite

Ground track
Ground track

The orbit data is extracted from the following two-line orbital elements,

1 27168U 02001A   21015.81595209  .00000093  00000-0  00000-0 0  9997
2 27168   8.9794  31.0793 0002255 274.2483 122.7898  1.00272026 13124
Epoch (UTC): 15 January 2021 19:34:58
Eccentricity: 0.0002255
inclination: 8.9794°
perigee height: 35776 km
apogee height: 35795 km
right ascension of ascending node: 31.0793°
argument of perigee: 274.2483°
revolutions per day: 1.00272026
mean anomaly at epoch: 122.7898°
orbit number at epoch: 1312

The dashed part of the orbit path shows where the satellite is in the earth's shadow,  

DLR